Regional Weather Roundup
Issued by NWS Sterling, VA

Home | Current Version | Previous Version | Graphics & Text | Print | Product List | Glossary On
Versions: 1 2 3 4 5 6 7 8 9 10 11 12 13 14 15 16 17 18 19 20 21 22 23 24 25 26 27 28 29 30 31 32 33 34 35 36 37 38 39 40 41 42 43 44 45 46 47 48 49 50
000
ASUS41 KLWX 042310
RWRLWX

REGIONAL WEATHER ROUNDUP
NATIONAL WEATHER SERVICE BALTIMORE MD/WASHINGTON DC
600 PM EST WED MAR 04 2015

Note: "FAIR" indicates few or no clouds below 12,000 feet
with no significant weather and/or obstructions to visibility.
 TC=TEMPERATURE CELSIUS

 * =Non NWS site. Station does not report precipitation (e.g. rain,
    snow, etc.), thunder, or fog.

DCZ001-MDZ009-015-VAZ040>042-051-053>054-050000-
WASHINGTON METRO

CITY           SKY/WX    TMP DP  RH WIND       PRES   REMARKS
WASHINGTON NAT NOT AVBL
DULLES         NOT AVBL
ANDREWS AFB    DRZL/FOG  46  46 100 CALM      29.88S VSB 3/4
FT BELVOIR     FOG       45  43  93 CALM      29.88F VSB 1/4
QUANTICO       LGT RAIN  44  41  89 CALM      29.89F FOG
MANASSAS*      FOG       43  43 100 CALM      29.89S VSB 1/2

$$

MDZ006>007-011-014-050000-
BALTIMORE METRO

CITY           SKY/WX    TMP DP  RH WIND       PRES   REMARKS
BWI AIRPORT    NOT AVBL
MD SCIENCE CTR   N/A     41  40  96 MISG      29.89S
MARTIN STATE   LGT RAIN  37  37 100 CALM      29.92R VSB 1/4
ANNAPOLIS      LGT RAIN  38  37  97 CALM      29.89F VSB 1/2

$$

MDZ012-015-019>023-050000-
MARYLAND EASTERN SHORE

CITY           SKY/WX    TMP DP  RH WIND       PRES   REMARKS
OCEAN CITY     CLOUDY    48  47  96 W3        29.91R FOG
SALISBURY      NOT AVBL

$$

MDZ017>025-050000-
SOUTHERN MARYLAND

CITY           SKY/WX    TMP DP  RH WIND       PRES   REMARKS
PATUXENT RIVER LGT RAIN  44  41  89 S3        29.89F FOG
ST INIGOES     CLOUDY    48  44  86 CALM      29.90S FOG
LEONARDTOWN*   NOT AVBL

$$

MDZ003>005-050000-
NORTH CENTRAL MARYLAND

CITY           SKY/WX    TMP DP  RH WIND       PRES   REMARKS
FREDERICK*     LGT RAIN  39  36  87 CALM      29.92R VSB 0
HAGERSTOWN APT NOT AVBL
WESTMINSTER*   NOT AVBL

$$

MDZ501>502-050000-
WESTERN MARYLAND

CITY           SKY/WX    TMP DP  RH WIND       PRES   REMARKS
OAKLAND*       NOT AVBL
CUMBERLAND*    NOT AVBL

$$

VAZ025>031-050000-
SHENANDOAH VALLEY

CITY           SKY/WX    TMP DP  RH WIND       PRES   REMARKS
WINCHESTER*    NOT AVBL
FRONT ROYAL*   NOT AVBL
LURAY*         NOT AVBL
NEW MARKET*    NOT AVBL
STAUNTON*      NOT AVBL
WAYNESBORO*    NOT AVBL

$$

WVZ021-048>050-054>055-050000-
EASTERN WEST VIRGINIA PANHANDLE

CITY           SKY/WX    TMP DP  RH WIND       PRES   REMARKS
MARTINSBURG    LGT RAIN  47  44  90 N6        29.88R FOG
PETERSBURG*    NOT AVBL

$$

VAZ036>039-050-050000-
CENTRAL FOOTHILLS

CITY           SKY/WX    TMP DP  RH WIND       PRES   REMARKS
CHARLOTTESVILL NOT AVBL
CULPEPER*      NOT AVBL
ORANGE*        NOT AVBL
GORDONSVILLE*  NOT AVBL
WARRENTON*     NOT AVBL

$$

VAZ055>057-050000-
NORTH AND CENTRAL PIEDMONT

CITY           SKY/WX    TMP DP  RH WIND       PRES   REMARKS
FREDERICKSBRG* NOT AVBL
STAFFORD*      NOT AVBL

$$

NCZ024-NYZ072-PAZ021-071-VAZ022-071-050000-
OTHER REGIONAL OBSERVATIONS

CITY           SKY/WX    TMP DP  RH WIND       PRES   REMARKS
NEW YORK CITY  CLOUDY    43  37  79 VRB5      29.89R
PITTSBURGH     LGT SNOW  33  32  96 CALM      29.92F FOG
RALEIGH        MOCLDY    72  53  51 SW20G29   29.84F

$$

ANZ530>537-050000-
MARINE OBSERVATIONS

STATION/POSITION TIME  TEMP    WIND        PRES
                       AIR SEA DIR/SP/G
                 (UTC) (F)     (DEG/KT/KT) (MB)
THOMAS PT LIGHT  NOT AVBL
BALT KEY BRIDGE  2200   38     140/  4/  4 1012.3R
COVE POINT       2200   44     190/  6/  7 1012.0F
LEWISETTA        2200   44 34  350/  6/  8 1012.0R
SOLOMONS ISLAND  2200      34                N/A

$$




USA.gov is the U.S. government's official web portal to all federal, state and local government web resources and services.